SCP
0 0 0 0 0 0 0 0 0 0 0 0 0 0 0 0 0 0 0 0 0 0 0 0 0 0 0 0 0 0 0 0 0 0 0 0 0 0
0 0 0 0 0 0 0 0 0 0 0 0 0 0 0 0 0 0 0 0 0 0 0 0 0 0 0 0 0 0 0 0 0 0 0 0 0 0
0 0 0 0 0 0 0 0 0 0 0 0 0 0 0 0 0 0 0 0 0 0 0 0 0 0 0 0 0 0 0 0 0 0 0 0 0 0
0 0 0 0 0 0 0 0 0 0 0 0 0 0 0 0 0 0 0 0 0 0 0 0 0 0 0 0 0 0 0 0 0 0 0 0 0 0
0 0 0 0 0 0 0 0 0 0 0 0 0 0 0 0 0 0 0 0 0 0 0 0 0 0 0 0 -0 0 0 0 0 0 0 0 0 0
0 0 0 0 0 0 0 0 0 0 0 0 0 0 0 0 0 0 0 0 0 0 0 0 0 0 -0 -0 0 0 0 0 0 0 0 0 0 0
0 0 0 0 0 0 0 0 0 0 0 0 0 0 0 0 0 0 0 0 0 0 0 0 0 0 0 0 -0 0 0 0 0 0 0 0 0 0
0 0 0 0 0 0 0 0 0 0 0 0 0 0 0 0 0 0 0 0 0 0 0 0 0 0 0 0 0 0 0 0 0 0 0 0 0 0
0 0 0 0 0 0 0 0 0 0 0 0 0 0 0 0 0 0 0 0 0 0 0 0 0 0 0 0 0 0 0 0 0 0 0 0 0 0
0 0 0 0 0 0 0 0 0 0 0 0 0 0 0 0 0 0 0 0 -0 -0 0 0 0 0 0 0 0 0 0 0 0 0 0 0 0 0
0 0 0 0 0 0 0 0 0 0 0 0 0 0 0 0 0 0 0 -0 -0 0 0 0 -0 0 0 0 0 0 0 0 0 0 0 0 0 0
0 0 0 0 0 0 0 0 0 0 0 0 0 0 -0 -0 -0 0 -0 -0 0 0 0 0 0 0 0 0 0 0 0 0 0 0 0 -0 0 0
0 0 0 0 0 0 0 0 0 0 0 0 0 0 0 -0 0 0 0 0 0 0 0 0 0 0 0 0 0 -0 -0 0 0 0 0 -0 0 0
0 0 0 0 0 0 0 0 0 0 0 0 -0 -0 -0 0 0 0 0 0 0 0 0 0 0 0 0 0 0 -0 0 0 0 0 0 0 0 -0
0 0 0 0 0 0 0 0 0 0 0 -0 -0 0 0 0 0 0 0 0 0 0 0 0 0 0 0 0 0 0 0 0 0 0 0 0 0 0
0 0 0 0 0 0 0 -0 0 0 0 0 0 0 0 0 0 0 0 0 0 0 0 0 0 0 0 0 0 0 0 0 0 0 0 0 0 0
0 0 0 0 0 0 0 0 0 0 0 0 0 0 0 0 0 0 0 0 0 0 0 0 0 0 0 0 0 0 0 0 0 0 0 0 0 0
0 0 0 0 0 0 0 0 0 0 0 0 0 0 0 0 0 0 0 0 0 0 0 0 0 0 0 0 0 0 0 0 0 0 0 0 0 0
0 0 0 0 0 0 0 0 0 0 0 0 0 0 0 0 0 0 0 0 0 0 0 0 0 0 0 0 0 0 0 0 0 0 0 0 0 0
0 0 0 0 0 0 0 0 0 0 0 0 0 0 0 0 0 0 0 0 0 0 0 0 0 0 0 0 0 0 0 0 0 0 0 0 0 -0
0 0 0 0 0 0 0 0 0 0 0 0 0 0 0 0 0 0 0 0 0 0 0 0 0 0 0 0 0 0 0 -0 0 0 0 0 0 0
0 0 0 0 0 0 0 0 0 0 0 0 0 0 0 0 0 0 0 0 0 0 0 0 0 0 0 0 0 0 0 0 -0 -0 -0 -0 0 0
0 0 0 0 0 0 0 0 0 0 0 0 0 0 0 0 0 0 0 0 0 0 0 0 0 -0 0 0 0 0 0 0 0 0 0 -0 -0 -0
Wind_Speed_500mb
24 28 32 31 32 34 34 39 45 48 53 48 44 41 37 37 40 40 39 43 59 50 48 43 43 42 44 41 44 41 40 46 45 43 44 44 41 49
30 34 33 35 35 38 43 46 50 55 59 49 51 48 42 38 42 41 42 55 45 48 43 40 40 43 49 49 45 47 43 42 48 49 48 45 48 49
29 34 34 32 38 39 43 50 57 53 55 57 55 51 42 49 42 43 47 41 43 38 35 33 37 43 50 53 50 55 50 45 46 47 42 42 41 43
25 28 31 30 40 42 47 56 55 61 67 68 73 57 56 50 49 54 47 42 42 28 40 35 34 41 46 44 41 39 37 42 41 39 42 43 42 43
27 33 41 47 56 57 62 64 66 65 59 65 64 62 56 55 60 69 42 30 31 29 35 34 35 33 31 30 30 33 30 32 37 36 36 38 39 42
39 42 44 47 48 48 51 55 45 50 58 64 67 72 69 60 53 39 26 26 25 25 29 30 29 29 25 24 28 31 25 26 28 32 35 36 40 42
39 37 44 48 48 52 53 50 60 57 53 47 44 42 41 40 32 23 29 28 28 28 27 25 22 20 19 20 22 14 12 15 20 22 27 26 27 30
41 47 54 56 59 57 58 53 43 41 41 40 39 39 31 26 25 22 24 19 23 20 31 24 16 13 12 15 18 12 13 12 15 16 19 24 25 30
52 57 55 48 52 43 35 33 31 34 29 30 30 27 27 34 33 35 32 25 21 19 33 15 9 11 12 15 14 9 13 15 19 24 18 22 24 25
58 53 43 38 31 37 36 34 30 29 28 26 25 30 30 28 28 27 24 22 19 24 17 11 8 12 7 10 14 8 12 20 25 27 19 18 20 19
40 33 30 28 34 38 34 31 32 27 26 21 24 25 22 16 17 17 16 12 11 14 10 6 10 13 3 6 13 17 20 29 24 14 15 19 19 17
32 22 29 32 36 34 30 28 31 28 26 23 13 15 10 7 6 2 8 4 8 7 3 7 10 20 13 10 14 17 27 25 14 10 6 6 10 20
28 31 32 34 32 30 27 25 29 26 21 15 14 12 9 5 2 3 8 11 12 9 7 9 12 21 21 18 11 21 26 8 14 15 27 36 43 34
32 31 32 30 25 24 24 27 19 20 15 17 14 18 17 12 6 9 12 11 6 3 7 15 25 26 19 10 4 20 12 16 16 23 31 32 30 25
28 27 26 23 21 22 23 22 15 16 15 17 22 24 21 18 16 15 14 10 7 11 12 9 6 2 4 2 2 12 16 20 21 28 28 29 31 27
28 26 25 21 21 22 21 19 13 15 16 19 22 18 22 22 21 23 22 23 27 23 13 14 5 6 15 16 6 7 5 16 36 40 41 42 42 43
28 28 29 29 28 28 27 26 16 12 14 18 20 20 21 25 24 19 24 25 27 29 30 27 23 22 27 25 32 34 40 46 48 52 49 51 50 47
30 32 32 33 33 31 29 26 21 14 16 16 21 25 30 26 26 27 28 34 31 36 41 46 51 53 57 60 53 46 45 47 47 51 51 51 51 47
40 38 37 37 36 32 28 27 27 28 27 25 26 33 28 33 30 34 30 34 34 39 43 48 51 58 61 64 55 48 46 42 44 46 47 49 47 40
42 40 39 38 42 41 39 36 33 35 30 24 30 30 28 30 30 26 32 39 40 41 41 47 48 49 56 56 56 32 29 33 38 39 40 43 45 37
42 41 38 38 36 33 34 29 26 30 28 24 25 22 27 30 31 34 34 34 42 38 41 41 39 40 45 46 51 48 44 25 20 35 28 30 36 41
42 42 42 42 43 40 34 27 29 32 31 25 21 25 32 35 37 40 37 36 35 35 38 37 38 41 47 50 50 49 49 52 52 44 31 24 25 46
37 39 41 43 48 43 37 37 34 37 37 41 39 40 35 28 36 34 35 37 36 37 41 45 47 52 50 49 45 44 43 43 44 55 58 51 54 54
Wind_Direction_500mb
279 272 273 274 273 275 274 282 285 289 290 296 297 299 296 289 284 283 289 291 301 297 292 277 273 270 273 280 282 284 285 273 270 262 261 262 262 256
284 282 284 284 279 277 279 286 288 289 287 287 297 296 286 286 289 285 292 299 297 291 290 276 272 266 272 276 276 279 283 272 263 262 263 264 258 258
287 288 288 284 281 281 283 289 289 281 278 284 293 294 280 297 287 289 298 297 290 295 285 280 277 276 276 277 277 274 269 262 263 263 261 261 256 248
295 290 287 290 285 284 278 277 280 283 290 289 290 283 284 286 283 289 297 290 291 282 283 285 289 292 285 284 281 280 279 254 256 256 253 251 251 250
291 293 292 293 292 290 288 289 292 290 288 290 291 292 283 280 293 301 300 276 291 288 298 298 291 294 292 278 278 285 279 263 255 259 254 254 254 254
294 294 296 300 298 296 296 298 297 289 293 291 291 293 292 297 293 295 279 293 288 305 311 299 296 293 286 292 282 302 286 271 254 243 248 252 249 251
301 302 306 303 300 298 298 293 292 292 294 295 291 293 293 292 274 277 299 290 302 297 310 311 295 295 281 296 304 301 284 297 274 256 250 249 250 253
311 311 311 310 302 300 299 299 301 303 301 300 298 291 292 272 280 276 295 325 307 305 320 322 296 280 287 303 305 294 305 293 324 282 258 250 246 241
317 314 313 310 310 315 324 326 323 320 311 299 297 303 308 278 276 279 278 274 293 306 318 315 272 318 315 302 301 296 317 317 316 318 266 251 247 247
320 322 324 331 330 325 323 317 318 316 313 301 297 301 295 291 290 284 270 269 283 309 310 301 297 322 328 267 355 352 331 329 304 304 278 256 252 238
333 342 345 348 353 344 334 319 321 321 321 318 309 307 306 293 302 270 251 244 286 309 282 315 327 357 347 139 352 345 343 332 320 314 270 243 234 250
347 347 336 337 340 344 344 336 332 332 338 338 358 351 348 305 25 127 153 205 303 309 312 343 319 4 1 14 351 341 342 341 357 22 51 132 163 137
348 340 339 336 334 342 352 342 338 340 350 16 31 28 37 47 35 233 256 266 283 254 256 324 308 336 342 339 345 342 344 48 55 76 103 112 111 105
348 344 336 336 338 347 357 351 347 9 55 52 40 25 15 3 329 288 280 273 214 211 237 288 297 313 317 336 45 348 41 93 103 112 109 107 107 107
354 348 345 346 352 359 360 13 14 33 56 44 28 17 19 53 61 70 73 69 3 345 353 355 326 127 246 12 119 40 101 103 119 119 121 118 109 107
7 8 8 7 7 10 11 21 25 44 42 31 21 26 51 73 61 47 58 83 86 62 71 70 79 118 120 139 136 129 187 120 116 115 113 112 108 106
15 20 21 27 29 29 42 39 49 58 47 33 35 60 70 62 66 65 82 85 74 84 69 80 79 92 101 111 111 112 117 116 115 113 115 109 102 99
30 32 33 36 38 42 40 45 46 58 51 45 65 69 68 69 59 91 82 79 96 96 90 87 90 95 97 93 92 98 102 106 108 107 107 105 96 91
46 45 45 46 46 40 41 48 60 81 75 67 86 71 68 56 85 94 80 85 88 103 101 101 99 97 91 88 85 81 87 91 96 94 96 95 93 88
49 51 49 56 61 54 54 55 58 68 68 81 79 66 59 68 82 84 105 92 102 92 96 97 94 91 91 89 83 87 79 83 80 83 84 83 84 87
50 51 60 56 57 64 58 60 51 53 67 89 76 66 65 89 75 96 111 98 89 103 93 89 86 87 89 92 85 79 71 73 94 98 89 80 84 85
59 55 52 51 49 43 47 62 69 68 81 92 74 75 96 86 89 99 89 92 96 97 100 101 93 83 77 83 88 87 80 77 80 86 90 108 107 90
54 53 50 50 41 46 60 72 75 72 78 85 84 90 94 94 94 92 91 95 100 98 103 103 92 79 82 86 89 87 88 84 82 88 86 84 89 89
Wind_Speed_850mb
24 28 32 31 32 34 34 39 45 48 53 48 44 41 37 37 40 40 39 43 59 50 48 43 43 42 44 41 44 41 40 46 45 43 44 44 41 49
30 34 33 35 35 38 43 46 50 55 59 49 51 48 42 38 42 41 42 55 45 48 43 40 40 43 49 49 45 47 43 42 48 49 48 45 48 49
29 34 34 32 38 39 43 50 57 53 55 57 55 51 42 49 42 43 47 41 43 38 35 33 37 43 50 53 50 55 50 45 46 47 42 42 41 43
25 28 31 30 40 42 47 56 55 61 67 68 73 57 56 50 49 54 47 42 42 28 40 35 34 41 46 44 41 39 37 42 41 39 42 43 42 43
27 33 41 47 56 57 62 64 66 65 59 65 64 62 56 55 60 69 42 30 31 29 35 34 35 33 31 30 30 33 30 32 37 36 36 38 39 42
39 42 44 47 48 48 51 55 45 50 58 64 67 72 69 60 53 39 26 26 25 25 29 30 29 29 25 24 28 31 25 26 28 32 35 36 40 42
39 37 44 48 48 52 53 50 60 57 53 47 44 42 41 40 32 23 29 28 28 28 27 25 22 20 19 20 22 14 12 15 20 22 27 26 27 30
41 47 54 56 59 57 58 53 43 41 41 40 39 39 31 26 25 22 24 19 23 20 31 24 16 13 12 15 18 12 13 12 15 16 19 24 25 30
52 57 55 48 52 43 35 33 31 34 29 30 30 27 27 34 33 35 32 25 21 19 33 15 9 11 12 15 14 9 13 15 19 24 18 22 24 25
58 53 43 38 31 37 36 34 30 29 28 26 25 30 30 28 28 27 24 22 19 24 17 11 8 12 7 10 14 8 12 20 25 27 19 18 20 19
40 33 30 28 34 38 34 31 32 27 26 21 24 25 22 16 17 17 16 12 11 14 10 6 10 13 3 6 13 17 20 29 24 14 15 19 19 17
32 22 29 32 36 34 30 28 31 28 26 23 13 15 10 7 6 2 8 4 8 7 3 7 10 20 13 10 14 17 27 25 14 10 6 6 10 20
28 31 32 34 32 30 27 25 29 26 21 15 14 12 9 5 2 3 8 11 12 9 7 9 12 21 21 18 11 21 26 8 14 15 27 36 43 34
32 31 32 30 25 24 24 27 19 20 15 17 14 18 17 12 6 9 12 11 6 3 7 15 25 26 19 10 4 20 12 16 16 23 31 32 30 25
28 27 26 23 21 22 23 22 15 16 15 17 22 24 21 18 16 15 14 10 7 11 12 9 6 2 4 2 2 12 16 20 21 28 28 29 31 27
28 26 25 21 21 22 21 19 13 15 16 19 22 18 22 22 21 23 22 23 27 23 13 14 5 6 15 16 6 7 5 16 36 40 41 42 42 43
28 28 29 29 28 28 27 26 16 12 14 18 20 20 21 25 24 19 24 25 27 29 30 27 23 22 27 25 32 34 40 46 48 52 49 51 50 47
30 32 32 33 33 31 29 26 21 14 16 16 21 25 30 26 26 27 28 34 31 36 41 46 51 53 57 60 53 46 45 47 47 51 51 51 51 47
40 38 37 37 36 32 28 27 27 28 27 25 26 33 28 33 30 34 30 34 34 39 43 48 51 58 61 64 55 48 46 42 44 46 47 49 47 40
42 40 39 38 42 41 39 36 33 35 30 24 30 30 28 30 30 26 32 39 40 41 41 47 48 49 56 56 56 32 29 33 38 39 40 43 45 37
42 41 38 38 36 33 34 29 26 30 28 24 25 22 27 30 31 34 34 34 42 38 41 41 39 40 45 46 51 48 44 25 20 35 28 30 36 41
42 42 42 42 43 40 34 27 29 32 31 25 21 25 32 35 37 40 37 36 35 35 38 37 38 41 47 50 50 49 49 52 52 44 31 24 25 46
37 39 41 43 48 43 37 37 34 37 37 41 39 40 35 28 36 34 35 37 36 37 41 45 47 52 50 49 45 44 43 43 44 55 58 51 54 54
Wind_Direction_850mb
279 272 273 274 273 275 274 282 285 289 290 296 297 299 296 289 284 283 289 291 301 297 292 277 273 270 273 280 282 284 285 273 270 262 261 262 262 256
284 282 284 284 279 277 279 286 288 289 287 287 297 296 286 286 289 285 292 299 297 291 290 276 272 266 272 276 276 279 283 272 263 262 263 264 258 258
287 288 288 284 281 281 283 289 289 281 278 284 293 294 280 297 287 289 298 297 290 295 285 280 277 276 276 277 277 274 269 262 263 263 261 261 256 248
295 290 287 290 285 284 278 277 280 283 290 289 290 283 284 286 283 289 297 290 291 282 283 285 289 292 285 284 281 280 279 254 256 256 253 251 251 250
291 293 292 293 292 290 288 289 292 290 288 290 291 292 283 280 293 301 300 276 291 288 298 298 291 294 292 278 278 285 279 263 255 259 254 254 254 254
294 294 296 300 298 296 296 298 297 289 293 291 291 293 292 297 293 295 279 293 288 305 311 299 296 293 286 292 282 302 286 271 254 243 248 252 249 251
301 302 306 303 300 298 298 293 292 292 294 295 291 293 293 292 274 277 299 290 302 297 310 311 295 295 281 296 304 301 284 297 274 256 250 249 250 253
311 311 311 310 302 300 299 299 301 303 301 300 298 291 292 272 280 276 295 325 307 305 320 322 296 280 287 303 305 294 305 293 324 282 258 250 246 241
317 314 313 310 310 315 324 326 323 320 311 299 297 303 308 278 276 279 278 274 293 306 318 315 272 318 315 302 301 296 317 317 316 318 266 251 247 247
320 322 324 331 330 325 323 317 318 316 313 301 297 301 295 291 290 284 270 269 283 309 310 301 297 322 328 267 355 352 331 329 304 304 278 256 252 238
333 342 345 348 353 344 334 319 321 321 321 318 309 307 306 293 302 270 251 244 286 309 282 315 327 357 347 139 352 345 343 332 320 314 270 243 234 250
347 347 336 337 340 344 344 336 332 332 338 338 358 351 348 305 25 127 153 205 303 309 312 343 319 4 1 14 351 341 342 341 357 22 51 132 163 137
348 340 339 336 334 342 352 342 338 340 350 16 31 28 37 47 35 233 256 266 283 254 256 324 308 336 342 339 345 342 344 48 55 76 103 112 111 105
348 344 336 336 338 347 357 351 347 9 55 52 40 25 15 3 329 288 280 273 214 211 237 288 297 313 317 336 45 348 41 93 103 112 109 107 107 107
354 348 345 346 352 359 360 13 14 33 56 44 28 17 19 53 61 70 73 69 3 345 353 355 326 127 246 12 119 40 101 103 119 119 121 118 109 107
7 8 8 7 7 10 11 21 25 44 42 31 21 26 51 73 61 47 58 83 86 62 71 70 79 118 120 139 136 129 187 120 116 115 113 112 108 106
15 20 21 27 29 29 42 39 49 58 47 33 35 60 70 62 66 65 82 85 74 84 69 80 79 92 101 111 111 112 117 116 115 113 115 109 102 99
30 32 33 36 38 42 40 45 46 58 51 45 65 69 68 69 59 91 82 79 96 96 90 87 90 95 97 93 92 98 102 106 108 107 107 105 96 91
46 45 45 46 46 40 41 48 60 81 75 67 86 71 68 56 85 94 80 85 88 103 101 101 99 97 91 88 85 81 87 91 96 94 96 95 93 88
49 51 49 56 61 54 54 55 58 68 68 81 79 66 59 68 82 84 105 92 102 92 96 97 94 91 91 89 83 87 79 83 80 83 84 83 84 87
50 51 60 56 57 64 58 60 51 53 67 89 76 66 65 89 75 96 111 98 89 103 93 89 86 87 89 92 85 79 71 73 94 98 89 80 84 85
59 55 52 51 49 43 47 62 69 68 81 92 74 75 96 86 89 99 89 92 96 97 100 101 93 83 77 83 88 87 80 77 80 86 90 108 107 90
54 53 50 50 41 46 60 72 75 72 78 85 84 90 94 94 94 92 91 95 100 98 103 103 92 79 82 86 89 87 88 84 82 88 86 84 89 89